Regional Weather Roundup
Issued by NWS

Home | Current Version | Previous Version | Graphics & Text | Print | Product List | Glossary On
Versions: 1 2 3 4 5 6 7 8 9 10 11 12 13 14 15 16 17 18 19 20 21 22 23 24 25 26 27 28 29 30 31 32 33 34 35 36 37 38 39 40 41 42 43 44 45 46 47 48 49 50
655
ASUS45 KTFX 271010
RWRMT
MONTANA REGIONAL WEATHER ROUNDUP
NATIONAL WEATHER SERVICE GREAT FALLS MT
400 AM MDT SAT MAY 27 2017

NOTE: "FAIR" INDICATES FEW OR NO CLOUDS BELOW 12000 FEET WITH NO
SIGNIFICANT WEATHER AND/OR OBSTRUCTIONS TO VISIBILITY.

MTZ001>007-043-271100-
WEST OF THE DIVIDE

CITY           SKY/WX    TMP DP  RH WIND       PRES   REMARKS
KALISPELL      CLEAR     39  38  96 NW3       30.05R
MISSOULA       PTCLDY    45  42  89 NW5       30.10R
BUTTE          CLOUDY    42  35  76 E3        30.13S
MULLAN PASS    CLEAR     46  31  55 NW6       30.15R
ANACONDA         N/A     50  34  53 CALM      30.11R
DEER LODGE       N/A     45  39  81 CALM      30.14R
EUREKA           N/A     39  36  87 CALM      30.05R
HAMILTON         N/A     48  37  66 S6        30.11R
RONAN            N/A     48  40  74 CALM      30.10R
$$

MTZ008-052>055-271100-
SOUTHWEST MONTANA

CITY           SKY/WX    TMP DP  RH WIND       PRES   REMARKS
BOZEMAN        CLOUDY    41  38  89 SE8       30.11R
DILLON         CLOUDY    44  35  70 S7        30.12R
ENNIS          CLOUDY    39  34  81 CALM      30.17R
THREE FORKS      N/A     43  40  89 CALM      30.08R
$$

MTZ009-010-012-014-046-048-049-054-271100-
EAST SLOPES AND CENTRAL MONTANA

CITY           SKY/WX    TMP DP  RH WIND       PRES   REMARKS
CUT BANK       CLEAR     42  35  76 W10       29.99R
GREAT FALLS    CLEAR     45  37  73 SW10      30.02R
MALMSTROM AFB  CLEAR     44  38  80 SW9       30.01S
HELENA         CLEAR     43  38  82 CALM      30.08R
BOWMANS CRNR     N/A     42  37  80 SW10      30.04R
CHOTEAU          N/A     46  34  61 SW7       30.03S
CONRAD           N/A     47  44  89 SW5       30.01S
RAYNESFORD       N/A     46  35  65 E3        30.03R
$$

MTZ011-013-016-021-045-047-050-051-271100-
NORTH CENTRAL MONTANA

CITY           SKY/WX    TMP DP  RH WIND       PRES   REMARKS
HAVRE          CLOUDY    49  38  65 SW15      29.92S
LEWISTOWN      CLOUDY    36  32  85 SE5       30.02S
N BAR RANCH      N/A     41  30  65 W3        30.04S
CHINOOK          N/A     52  39  62 NW6       29.91R
GEYSER           N/A     43  36  76 SW14      30.01R
WINIFRED         N/A     48  35  60 SW12      29.98R
$$

MTZ017>020-022>027-061-062-271100-
NORTHEAST MONTANA

CITY           SKY/WX    TMP DP  RH WIND       PRES   REMARKS
GLASGOW        CLOUDY    48  40  73 NW3       29.89S
JORDAN           N/A     44  35  70 W9        29.93F
SIDNEY         PTCLDY    44  37  76 S7        29.89S
WOLF POINT     CLOUDY    48  39  71 W7        29.89S
MALTA          CLOUDY    45  41  87 W9        29.89S
PLENTYWOOD       N/A     46  37  71 NW5       29.85S
POPLAR           N/A     46  37  71 SW6       29.88F
$$

MTZ028>42-056>058-271100-
SOUTHCENTRAL AND SOUTHEAST MONTANA

CITY           SKY/WX    TMP DP  RH WIND       PRES   REMARKS
BAKER          CLEAR     42  35  76 NW3       29.95S
BILLINGS       CLEAR     44  36  73 SW12      30.02S
LIVINGSTON     CLOUDY    38  36  92 NW13      30.09R WCI  30
MILES CITY     CLEAR     41  31  67 W8        29.95S
BIG TIMBER     CLEAR     45  36  70 SW17      30.09R
FORSYTH          N/A     48  37  66 SW3       29.96S
LAUREL           N/A     38  30  73 CALM      30.02F
ROUNDUP          N/A     41  35  79 S9        29.93S
$$

REGIONAL REPORTS...DAKOTAS

CITY           SKY/WX    TMP DP  RH WIND       PRES   REMARKS
WILLISTON      CLOUDY    49  40  71 W10       29.87R
MINOT          PTCLDY    50  39  66 SW10      29.80S
DICKINSON      PTCLDY    39  33  79 W9        29.89R
BEACH            N/A     41  37  87 SW7       29.95S
CROSBY           N/A     48  41  76 SW13      29.82S
TIOGA          MOCLDY    45  45 100 SW7       29.86S
WATFORD CITY     N/A     41  37  87 SW7       29.87R
BISMARCK       CLEAR     46  37  71 CALM      29.88R
GRAND FORKS    CLOUDY    51  43  74 SW9       29.76F
FARGO          MOCLDY    49  43  80 S7        29.82S
BUFFALO SD       N/A     43  37  79 W8        29.88S
RAPID CITY     MOCLDY    48  45  89 W6        29.97S
$$

REGIONAL REPORTS...WYOMING/IDAHO/WASHINGTON

CITY           SKY/WX    TMP DP  RH WIND       PRES   REMARKS
GILLETTE       CLOUDY    45  43  93 W12       30.03R
SHERIDAN       CLEAR     39  35  86 W5        30.05R
BUFFALO WY     CLEAR     39  32  76 W8        30.06R
CODY           CLOUDY    43  34  70 W5        30.10R
YELLOWSTONE LA   N/A     29  29 100 CALM      30.19R
IDAHO FALLS    PTCLDY    35  35 100 CALM      30.17R
SALMON         CLEAR     43  37  81 CALM      30.12R
BOISE          CLEAR     51  41  68 SE9       30.09R
SPOKANE        PTCLDY    55  41  59 SW7       30.05R
$$

REGIONAL REPORTS...ALBERTA

CITY           SKY/WX    TMP DP  RH WIND       PRES   REMARKS
EDMONTON       CLEAR     48  41  76 SW7       29.85R
CALGARY        PTCLDY    57  30  35 NW9       29.95R
MEDICINE HAT   CLOUDY    55  41  58 SW9       29.86S
WATERTON GATE    N/A     45  34  65 S12         N/A
CARDSTON         N/A     48  34  57 SW10        N/A
MILK RIVER       N/A     50  39  66 W14         N/A
ONEFOUR          N/A     52  36  54 NW16        N/A
$$

REGIONAL REPORTS...SASKATCHEWAN

CITY           SKY/WX    TMP DP  RH WIND       PRES   REMARKS
SWIFT CURRENT  PTCLDY    46  41  81 W12       29.82S
REGINA         PTCLDY    41  39  93 W9        29.77S
SASKATOON      PTCLDY    37  36  93 W7        29.78S
CYPRESS HILLS    N/A     52  32  46 W5          N/A
VAL MARIE        N/A     46  39  76 S8          N/A
ROCKGLEN         N/A     46  39  76 W13         N/A
ASSINIBOIA       N/A     46  41  81 W8          N/A
$$




USA.gov is the U.S. government's official web portal to all federal, state and local government web resources and services.